Time,TemperatureF,DewpointF,PressureIn,WindDirection,WindDirectionDegrees,WindSpeedMPH,WindSpeedGustMPH,Humidity,HourlyPrecipIn,Conditions,Clouds,dailyrainin,SoftwareType,DateUTC
2013-10-14 00:01:00,55.5,47.3,30.28,NNE,30,0.0,0.0,74,0.00,,,0.00,Wunderground v.1.15,2013-10-14 04:01:00,
2013-10-14 00:05:00,55.1,46.6,30.27,NNE,30,0.0,0.0,73,0.00,,,0.00,Wunderground v.1.15,2013-10-14 04:05:00,
2013-10-14 00:07:00,54.9,46.4,30.27,NNE,30,0.0,0.0,73,0.00,,,0.00,Wunderground v.1.15,2013-10-14 04:07:00,
2013-10-14 00:09:00,54.8,45.9,30.27,NNE,30,0.0,0.0,72,0.00,,,0.00,Wunderground v.1.15,2013-10-14 04:09:00,
2013-10-14 00:15:00,54.8,45.9,30.26,NNE,30,1.0,3.0,72,0.00,,,0.00,Wunderground v.1.15,2013-10-14 04:15:00,
2013-10-14 00:21:00,54.9,46.0,30.26,NNE,30,2.0,2.0,72,0.00,,,0.00,Wunderground v.1.15,2013-10-14 04:21:00,
2013-10-14 00:25:00,54.9,46.0,30.26,NNE,30,2.0,2.0,72,0.00,,,0.00,Wunderground v.1.15,2013-10-14 04:25:00,
2013-10-14 00:31:00,54.9,45.7,30.26,NNE,30,1.0,2.0,71,0.00,,,0.00,Wunderground v.1.15,2013-10-14 04:31:00,
2013-10-14 00:37:00,54.9,45.7,30.26,NNE,30,1.0,2.0,71,0.00,,,0.00,Wunderground v.1.15,2013-10-14 04:37:00,
2013-10-14 00:43:00,54.8,45.6,30.26,NNE,30,1.0,2.0,71,0.00,,,0.00,Wunderground v.1.15,2013-10-14 04:43:00,
2013-10-14 00:49:00,54.9,45.7,30.26,NNE,30,2.0,3.0,71,0.00,,,0.00,Wunderground v.1.15,2013-10-14 04:49:00,
2013-10-14 00:55:00,54.9,45.7,30.26,NNE,33,2.0,4.0,71,0.00,,,0.00,Wunderground v.1.15,2013-10-14 04:55:00,
2013-10-14 01:00:00,54.9,45.3,30.26,NE,56,2.0,2.0,70,0.00,,,0.00,Wunderground v.1.15,2013-10-14 05:00:00,
2013-10-14 01:07:00,54.9,45.3,30.26,NE,47,3.0,3.0,70,0.00,,,0.00,Wunderground v.1.15,2013-10-14 05:07:00,
2013-10-14 01:13:00,54.8,45.2,30.26,NE,47,2.0,3.0,70,0.00,,,0.00,Wunderground v.1.15,2013-10-14 05:13:00,
2013-10-14 01:19:00,54.5,45.3,30.26,NE,47,2.0,3.0,71,0.00,,,0.00,Wunderground v.1.15,2013-10-14 05:19:00,
2013-10-14 01:25:00,54.4,45.2,30.26,NE,48,2.0,3.0,71,0.00,,,0.00,Wunderground v.1.15,2013-10-14 05:25:00,
2013-10-14 01:30:00,54.3,45.5,30.26,ENE,61,2.0,3.0,72,0.00,,,0.00,Wunderground v.1.15,2013-10-14 05:30:00,
2013-10-14 01:37:00,54.3,45.5,30.26,ENE,58,3.0,3.0,72,0.00,,,0.00,Wunderground v.1.15,2013-10-14 05:37:00,
2013-10-14 01:43:00,54.2,45.4,30.26,ENE,57,2.0,2.0,72,0.00,,,0.00,Wunderground v.1.15,2013-10-14 05:43:00,
2013-10-14 01:49:00,54.0,45.5,30.26,ENE,57,2.0,3.0,73,0.00,,,0.00,Wunderground v.1.15,2013-10-14 05:49:00,
2013-10-14 01:55:00,53.9,45.4,30.27,ENE,57,2.0,3.0,73,0.00,,,0.00,Wunderground v.1.15,2013-10-14 05:55:00,
2013-10-14 02:01:00,53.7,45.2,30.27,NE,56,2.0,2.0,73,0.00,,,0.00,Wunderground v.1.15,2013-10-14 06:01:00,
2013-10-14 02:07:00,53.6,45.5,30.27,NE,56,3.0,4.0,74,0.00,,,0.00,Wunderground v.1.15,2013-10-14 06:07:00,
2013-10-14 02:15:00,53.5,45.4,30.27,NE,56,2.0,4.0,74,0.00,,,0.00,Wunderground v.1.15,2013-10-14 06:15:00,
2013-10-14 02:21:00,53.3,45.2,30.27,NE,55,2.0,3.0,74,0.00,,,0.00,Wunderground v.1.15,2013-10-14 06:21:00,
2013-10-14 02:27:00,53.2,45.1,30.27,NE,55,1.0,3.0,74,0.00,,,0.00,Wunderground v.1.15,2013-10-14 06:27:00,
2013-10-14 02:33:00,53.1,45.4,30.27,NE,55,1.0,1.0,75,0.00,,,0.00,Wunderground v.1.15,2013-10-14 06:33:00,
2013-10-14 02:39:00,52.8,45.1,30.28,NE,55,1.0,2.0,75,0.00,,,0.00,Wunderground v.1.15,2013-10-14 06:39:00,
2013-10-14 02:45:00,52.7,45.0,30.28,NE,55,0.0,2.0,75,0.00,,,0.00,Wunderground v.1.15,2013-10-14 06:45:00,
2013-10-14 02:51:00,52.4,45.1,30.28,NE,55,0.0,0.0,76,0.00,,,0.00,Wunderground v.1.15,2013-10-14 06:51:00,
2013-10-14 02:57:00,52.2,44.9,30.28,NE,55,0.0,0.0,76,0.00,,,0.00,Wunderground v.1.15,2013-10-14 06:57:00,
2013-10-14 03:03:00,51.9,44.9,30.28,NE,55,0.0,0.0,77,0.00,,,0.00,Wunderground v.1.15,2013-10-14 07:03:00,
2013-10-14 03:09:00,51.7,44.7,30.28,NE,55,0.0,0.0,77,0.00,,,0.00,Wunderground v.1.15,2013-10-14 07:09:00,
2013-10-14 03:15:00,51.4,44.4,30.28,NE,55,0.0,0.0,77,0.00,,,0.00,Wunderground v.1.15,2013-10-14 07:15:00,
2013-10-14 03:21:00,51.2,44.6,30.28,NE,55,0.0,0.0,78,0.00,,,0.00,Wunderground v.1.15,2013-10-14 07:21:00,
2013-10-14 03:27:00,51.1,44.5,30.28,NE,55,0.0,0.0,78,0.00,,,0.00,Wunderground v.1.15,2013-10-14 07:27:00,
2013-10-14 03:33:00,51.0,44.4,30.28,NE,55,1.0,3.0,78,0.00,,,0.00,Wunderground v.1.15,2013-10-14 07:33:00,
2013-10-14 03:38:00,51.0,44.4,30.28,NE,55,1.0,3.0,78,0.00,,,0.00,Wunderground v.1.15,2013-10-14 07:38:00,
2013-10-14 03:45:00,50.8,44.5,30.28,NE,55,1.0,4.0,79,0.00,,,0.00,Wunderground v.1.15,2013-10-14 07:45:00,
2013-10-14 03:51:00,50.8,44.5,30.28,NE,55,1.0,5.0,79,0.00,,,0.00,Wunderground v.1.15,2013-10-14 07:51:00,
2013-10-14 03:57:00,50.8,44.5,30.28,NE,55,1.0,5.0,79,0.00,,,0.00,Wunderground v.1.15,2013-10-14 07:57:00,
2013-10-14 04:03:00,50.8,44.5,30.28,NE,55,1.0,1.0,79,0.00,,,0.00,Wunderground v.1.15,2013-10-14 08:03:00,
2013-10-14 04:09:00,50.8,44.5,30.28,NE,55,1.0,4.0,79,0.00,,,0.00,Wunderground v.1.15,2013-10-14 08:09:00,
2013-10-14 04:15:00,50.7,44.4,30.28,NE,55,1.0,1.0,79,0.00,,,0.00,Wunderground v.1.15,2013-10-14 08:15:00,
2013-10-14 04:21:00,50.6,44.3,30.28,NE,56,1.0,1.0,79,0.00,,,0.00,Wunderground v.1.15,2013-10-14 08:21:00,
2013-10-14 04:27:00,50.5,44.2,30.28,NE,55,2.0,2.0,79,0.00,,,0.00,Wunderground v.1.15,2013-10-14 08:27:00,
2013-10-14 04:33:00,50.4,44.1,30.28,NE,55,2.0,2.0,79,0.00,,,0.00,Wunderground v.1.15,2013-10-14 08:33:00,
2013-10-14 04:39:00,50.3,44.4,30.28,NE,55,1.0,2.0,80,0.00,,,0.00,Wunderground v.1.15,2013-10-14 08:39:00,
2013-10-14 04:45:00,50.2,44.3,30.28,ENE,65,2.0,4.0,80,0.00,,,0.00,Wunderground v.1.15,2013-10-14 08:45:00,
2013-10-14 04:51:00,50.2,44.3,30.28,ENE,63,2.0,3.0,80,0.00,,,0.00,Wunderground v.1.15,2013-10-14 08:51:00,
2013-10-14 04:57:00,50.3,44.4,30.28,ENE,64,2.0,4.0,80,0.00,,,0.00,Wunderground v.1.15,2013-10-14 08:57:00,
2013-10-14 05:03:00,50.2,44.3,30.28,ENE,63,2.0,5.0,80,0.00,,,0.00,Wunderground v.1.15,2013-10-14 09:03:00,
2013-10-14 05:09:00,50.1,44.2,30.28,ENE,63,2.0,5.0,80,0.00,,,0.00,Wunderground v.1.15,2013-10-14 09:09:00,
2013-10-14 05:15:00,50.0,44.1,30.28,ENE,63,2.0,3.0,80,0.00,,,0.00,Wunderground v.1.15,2013-10-14 09:15:00,
2013-10-14 05:21:00,49.9,44.0,30.28,ENE,63,2.0,4.0,80,0.00,,,0.00,Wunderground v.1.15,2013-10-14 09:21:00,
2013-10-14 05:26:00,50.0,44.1,30.28,ENE,63,2.0,5.0,80,0.00,,,0.00,Wunderground v.1.15,2013-10-14 09:26:00,
2013-10-14 05:32:00,49.9,44.0,30.28,ENE,59,3.0,3.0,80,0.00,,,0.00,Wunderground v.1.15,2013-10-14 09:32:00,
2013-10-14 05:39:00,49.9,44.0,30.28,ENE,59,2.0,3.0,80,0.00,,,0.00,Wunderground v.1.15,2013-10-14 09:39:00,
2013-10-14 05:45:00,49.7,43.8,30.28,ENE,59,1.0,2.0,80,0.00,,,0.00,Wunderground v.1.15,2013-10-14 09:45:00,
2013-10-14 05:51:00,49.6,44.0,30.28,ENE,59,1.0,2.0,81,0.00,,,0.00,Wunderground v.1.15,2013-10-14 09:51:00,
2013-10-14 05:57:00,49.5,43.9,30.28,ENE,61,2.0,3.0,81,0.00,,,0.00,Wunderground v.1.15,2013-10-14 09:57:00,
2013-10-14 06:03:00,49.4,43.8,30.28,ENE,62,2.0,2.0,81,0.00,,,0.00,Wunderground v.1.15,2013-10-14 10:03:00,
2013-10-14 06:09:00,49.3,43.7,30.28,ENE,62,1.0,3.0,81,0.00,,,0.00,Wunderground v.1.15,2013-10-14 10:09:00,
2013-10-14 06:15:00,49.1,43.8,30.28,ENE,62,1.0,1.0,82,0.00,,,0.00,Wunderground v.1.15,2013-10-14 10:15:00,
2013-10-14 06:21:00,49.0,43.7,30.27,ENE,62,1.0,2.0,82,0.00,,,0.00,Wunderground v.1.15,2013-10-14 10:21:00,
2013-10-14 06:27:00,48.9,43.6,30.28,ENE,62,1.0,2.0,82,0.00,,,0.00,Wunderground v.1.15,2013-10-14 10:27:00,
2013-10-14 06:33:00,48.9,43.6,30.27,ENE,62,1.0,3.0,82,0.00,,,0.00,Wunderground v.1.15,2013-10-14 10:33:00,
2013-10-14 06:39:00,48.8,43.5,30.27,ENE,62,1.0,3.0,82,0.00,,,0.00,Wunderground v.1.15,2013-10-14 10:39:00,
2013-10-14 06:45:00,48.8,43.9,30.27,ENE,63,2.0,5.0,83,0.00,,,0.00,Wunderground v.1.15,2013-10-14 10:45:00,
2013-10-14 06:51:00,48.7,43.8,30.27,ENE,76,2.0,2.0,83,0.00,,,0.00,Wunderground v.1.15,2013-10-14 10:51:00,
2013-10-14 06:57:00,48.7,43.8,30.27,ENE,76,2.0,2.0,83,0.00,,,0.00,Wunderground v.1.15,2013-10-14 10:57:00,
2013-10-14 07:03:00,48.7,43.8,30.27,ENE,76,1.0,1.0,83,0.00,,,0.00,Wunderground v.1.15,2013-10-14 11:03:00,
2013-10-14 07:09:00,48.7,43.8,30.27,ENE,75,2.0,2.0,83,0.00,,,0.00,Wunderground v.1.15,2013-10-14 11:09:00,
2013-10-14 07:15:00,48.6,43.7,30.27,ENE,74,2.0,2.0,83,0.00,,,0.00,Wunderground v.1.15,2013-10-14 11:15:00,
2013-10-14 07:21:00,48.5,43.6,30.27,ENE,75,2.0,2.0,83,0.00,,,0.00,Wunderground v.1.15,2013-10-14 11:21:00,
2013-10-14 07:27:00,48.5,43.9,30.27,ENE,71,1.0,4.0,84,0.00,,,0.00,Wunderground v.1.15,2013-10-14 11:27:00,
2013-10-14 07:33:00,48.5,43.9,30.27,ENE,71,2.0,3.0,84,0.00,,,0.00,Wunderground v.1.15,2013-10-14 11:33:00,
2013-10-14 07:39:00,48.4,43.8,30.28,ENE,69,1.0,3.0,84,0.00,,,0.00,Wunderground v.1.15,2013-10-14 11:39:00,
2013-10-14 07:45:00,48.3,43.7,30.28,ENE,69,1.0,2.0,84,0.00,,,0.00,Wunderground v.1.15,2013-10-14 11:45:00,
2013-10-14 07:50:00,48.2,43.6,30.28,ENE,69,0.0,2.0,84,0.00,,,0.00,Wunderground v.1.15,2013-10-14 11:50:00,
2013-10-14 07:57:00,48.1,43.5,30.28,ENE,69,0.0,2.0,84,0.00,,,0.00,Wunderground v.1.15,2013-10-14 11:57:00,
2013-10-14 08:03:00,48.1,43.5,30.28,ENE,69,0.0,1.0,84,0.00,,,0.00,Wunderground v.1.15,2013-10-14 12:03:00,
2013-10-14 08:09:00,48.0,43.7,30.28,ENE,69,1.0,1.0,85,0.00,,,0.00,Wunderground v.1.15,2013-10-14 12:09:00,
2013-10-14 08:15:00,48.1,43.8,30.29,ENE,69,0.0,3.0,85,0.00,,,0.00,Wunderground v.1.15,2013-10-14 12:15:00,
2013-10-14 08:21:00,48.2,43.9,30.30,ENE,69,0.0,0.0,85,0.00,,,0.00,Wunderground v.1.15,2013-10-14 12:21:00,
2013-10-14 08:27:00,48.5,44.2,30.29,ENE,69,0.0,0.0,85,0.00,,,0.00,Wunderground v.1.15,2013-10-14 12:27:00,
2013-10-14 08:32:00,48.7,44.4,30.30,ENE,69,0.0,0.0,85,0.00,,,0.00,Wunderground v.1.15,2013-10-14 12:32:00,
2013-10-14 08:39:00,49.0,44.7,30.30,ENE,69,0.0,0.0,85,0.00,,,0.00,Wunderground v.1.15,2013-10-14 12:39:00,
2013-10-14 08:45:00,49.4,45.1,30.29,ENE,69,0.0,0.0,85,0.00,,,0.00,Wunderground v.1.15,2013-10-14 12:45:00,
2013-10-14 08:51:00,49.7,45.4,30.29,ENE,69,0.0,0.0,85,0.00,,,0.00,Wunderground v.1.15,2013-10-14 12:51:00,
2013-10-14 08:57:00,50.2,45.9,30.28,ENE,69,0.0,3.0,85,0.00,,,0.00,Wunderground v.1.15,2013-10-14 12:57:00,
2013-10-14 09:03:00,50.7,45.7,30.28,East,87,1.0,3.0,83,0.00,,,0.00,Wunderground v.1.15,2013-10-14 13:03:00,
2013-10-14 09:09:00,51.1,46.4,30.28,East,90,1.0,3.0,84,0.00,,,0.00,Wunderground v.1.15,2013-10-14 13:09:00,
2013-10-14 09:15:00,51.5,46.5,30.28,East,82,1.0,2.0,83,0.00,,,0.00,Wunderground v.1.15,2013-10-14 13:15:00,
2013-10-14 09:21:00,52.1,47.1,30.29,East,82,1.0,1.0,83,0.00,,,0.00,Wunderground v.1.15,2013-10-14 13:21:00,
2013-10-14 09:27:00,52.6,46.9,30.29,East,92,1.0,2.0,81,0.00,,,0.00,Wunderground v.1.15,2013-10-14 13:27:00,
2013-10-14 09:33:00,53.2,47.5,30.28,East,90,2.0,3.0,81,0.00,,,0.00,Wunderground v.1.15,2013-10-14 13:33:00,
2013-10-14 09:39:00,53.5,47.5,30.28,East,91,3.0,5.0,80,0.00,,,0.00,Wunderground v.1.15,2013-10-14 13:39:00,
2013-10-14 09:45:00,53.7,47.7,30.28,East,90,3.0,5.0,80,0.00,,,0.00,Wunderground v.1.15,2013-10-14 13:45:00,
2013-10-14 09:51:00,54.0,48.0,30.28,East,97,3.0,7.0,80,0.00,,,0.00,Wunderground v.1.15,2013-10-14 13:51:00,
2013-10-14 09:57:00,54.3,47.9,30.28,ENE,73,3.0,7.0,79,0.00,,,0.00,Wunderground v.1.15,2013-10-14 13:57:00,
2013-10-14 10:03:00,55.0,48.6,30.28,East,94,3.0,5.0,79,0.00,,,0.00,Wunderground v.1.15,2013-10-14 14:03:00,
2013-10-14 10:09:00,55.6,49.5,30.28,East,90,4.0,5.0,80,0.00,,,0.00,Wunderground v.1.15,2013-10-14 14:09:00,
2013-10-14 10:14:00,56.4,50.0,30.28,East,86,3.0,4.0,79,0.00,,,0.00,Wunderground v.1.15,2013-10-14 14:14:00,
2013-10-14 10:21:00,57.0,49.2,30.28,East,90,3.0,3.0,75,0.00,,,0.00,Wunderground v.1.15,2013-10-14 14:21:00,
2013-10-14 10:27:00,57.5,50.3,30.28,East,88,3.0,5.0,77,0.00,,,0.00,Wunderground v.1.15,2013-10-14 14:27:00,
2013-10-14 10:33:00,58.1,49.9,30.28,East,89,5.0,5.0,74,0.00,,,0.00,Wunderground v.1.15,2013-10-14 14:33:00,
2013-10-14 10:39:00,58.6,49.6,30.27,ESE,115,6.0,6.0,72,0.00,,,0.00,Wunderground v.1.15,2013-10-14 14:39:00,
2013-10-14 10:44:00,58.9,49.5,30.27,ESE,105,6.0,8.0,71,0.00,,,0.00,Wunderground v.1.15,2013-10-14 14:44:00,
2013-10-14 10:51:00,59.3,50.3,30.27,ENE,78,6.0,6.0,72,0.00,,,0.00,Wunderground v.1.15,2013-10-14 14:51:00,
2013-10-14 10:57:00,59.8,50.0,30.27,East,98,5.0,9.0,70,0.00,,,0.00,Wunderground v.1.15,2013-10-14 14:57:00,
2013-10-14 11:03:00,60.0,49.8,30.27,East,87,6.0,7.0,69,0.00,,,0.00,Wunderground v.1.15,2013-10-14 15:03:00,
2013-10-14 11:09:00,60.5,49.9,30.28,East,86,6.0,7.0,68,0.00,,,0.00,Wunderground v.1.15,2013-10-14 15:09:00,
2013-10-14 11:15:00,60.9,49.5,30.27,ENE,73,6.0,6.0,66,0.00,,,0.00,Wunderground v.1.15,2013-10-14 15:15:00,
2013-10-14 11:21:00,61.3,49.4,30.27,ENE,70,6.0,6.0,65,0.00,,,0.00,Wunderground v.1.15,2013-10-14 15:21:00,
2013-10-14 11:27:00,61.7,49.8,30.27,ESE,105,5.0,7.0,65,0.00,,,0.00,Wunderground v.1.15,2013-10-14 15:27:00,
2013-10-14 11:33:00,62.1,50.6,30.27,East,81,5.0,6.0,66,0.00,,,0.00,Wunderground v.1.15,2013-10-14 15:33:00,
2013-10-14 11:39:00,62.6,51.5,30.27,ESE,109,5.0,7.0,67,0.00,,,0.00,Wunderground v.1.15,2013-10-14 15:39:00,
2013-10-14 11:45:00,63.2,51.2,30.27,ENE,74,4.0,7.0,65,0.00,,,0.00,Wunderground v.1.15,2013-10-14 15:45:00,
2013-10-14 11:51:00,63.4,51.4,30.26,East,88,5.0,6.0,65,0.00,,,0.00,Wunderground v.1.15,2013-10-14 15:51:00,
2013-10-14 11:57:00,63.6,50.8,30.26,ENE,72,5.0,6.0,63,0.00,,,0.00,Wunderground v.1.15,2013-10-14 15:57:00,
2013-10-14 12:03:00,64.0,50.3,30.26,East,94,5.0,7.0,61,0.00,,,0.00,Wunderground v.1.15,2013-10-14 16:03:00,
2013-10-14 12:09:00,64.4,52.0,30.26,ESE,103,5.0,7.0,64,0.00,,,0.00,Wunderground v.1.15,2013-10-14 16:09:00,
2013-10-14 12:15:00,64.7,52.7,30.26,ESE,114,5.0,5.0,65,0.00,,,0.00,Wunderground v.1.15,2013-10-14 16:15:00,
2013-10-14 12:21:00,65.1,53.0,30.26,ENE,63,4.0,4.0,65,0.00,,,0.00,Wunderground v.1.15,2013-10-14 16:21:00,
2013-10-14 12:27:00,65.4,52.5,30.26,ESE,103,4.0,6.0,63,0.00,,,0.00,Wunderground v.1.15,2013-10-14 16:27:00,
2013-10-14 12:33:00,65.6,51.8,30.26,SE,133,4.0,8.0,61,0.00,,,0.00,Wunderground v.1.15,2013-10-14 16:33:00,
2013-10-14 12:39:00,65.9,52.5,30.25,SE,125,3.0,8.0,62,0.00,,,0.00,Wunderground v.1.15,2013-10-14 16:39:00,
2013-10-14 12:45:00,66.3,52.0,30.24,ENE,78,4.0,6.0,60,0.00,,,0.00,Wunderground v.1.15,2013-10-14 16:45:00,
2013-10-14 12:51:00,66.5,52.2,30.24,East,82,5.0,6.0,60,0.00,,,0.00,Wunderground v.1.15,2013-10-14 16:51:00,
2013-10-14 12:57:00,66.6,53.2,30.24,East,98,5.0,6.0,62,0.00,,,0.00,Wunderground v.1.15,2013-10-14 16:57:00,
2013-10-14 13:03:00,66.8,52.9,30.24,ENE,62,5.0,9.0,61,0.00,,,0.00,Wunderground v.1.15,2013-10-14 17:03:00,
2013-10-14 13:09:00,66.7,51.9,30.23,ENE,78,5.0,9.0,59,0.00,,,0.00,Wunderground v.1.15,2013-10-14 17:09:00,
2013-10-14 13:15:00,66.7,53.3,30.23,East,85,4.0,5.0,62,0.00,,,0.00,Wunderground v.1.15,2013-10-14 17:15:00,
2013-10-14 13:20:00,66.9,53.5,30.22,East,84,4.0,6.0,62,0.00,,,0.00,Wunderground v.1.15,2013-10-14 17:20:00,
2013-10-14 13:27:00,66.9,53.5,30.22,ESE,106,5.0,6.0,62,0.00,,,0.00,Wunderground v.1.15,2013-10-14 17:27:00,
2013-10-14 13:33:00,67.3,52.5,30.22,East,79,5.0,5.0,59,0.00,,,0.00,Wunderground v.1.15,2013-10-14 17:33:00,
2013-10-14 13:39:00,67.6,53.2,30.22,ENE,68,4.0,7.0,60,0.00,,,0.00,Wunderground v.1.15,2013-10-14 17:39:00,
2013-10-14 13:45:00,68.3,54.3,30.22,East,82,3.0,5.0,61,0.00,,,0.00,Wunderground v.1.15,2013-10-14 17:45:00,
2013-10-14 13:51:00,68.6,55.5,30.21,ENE,69,4.0,8.0,63,0.00,,,0.00,Wunderground v.1.15,2013-10-14 17:51:00,
2013-10-14 13:56:00,68.7,52.4,30.21,East,88,4.0,8.0,56,0.00,,,0.00,Wunderground v.1.15,2013-10-14 17:56:00,
2013-10-14 14:03:00,68.6,53.2,30.21,ENE,76,3.0,5.0,58,0.00,,,0.00,Wunderground v.1.15,2013-10-14 18:03:00,
2013-10-14 14:09:00,68.7,53.8,30.21,East,91,3.0,5.0,59,0.00,,,0.00,Wunderground v.1.15,2013-10-14 18:09:00,
2013-10-14 14:15:00,69.0,55.4,30.20,ESE,105,2.0,4.0,62,0.00,,,0.00,Wunderground v.1.15,2013-10-14 18:15:00,
2013-10-14 14:21:00,69.3,54.8,30.19,East,83,2.0,5.0,60,0.00,,,0.00,Wunderground v.1.15,2013-10-14 18:21:00,
2013-10-14 14:27:00,69.4,54.0,30.19,East,90,1.0,5.0,58,0.00,,,0.00,Wunderground v.1.15,2013-10-14 18:27:00,
2013-10-14 14:33:00,69.4,54.9,30.19,ENE,76,1.0,4.0,60,0.00,,,0.00,Wunderground v.1.15,2013-10-14 18:33:00,
2013-10-14 14:39:00,69.3,52.9,30.19,ENE,77,2.0,7.0,56,0.00,,,0.00,Wunderground v.1.15,2013-10-14 18:39:00,
2013-10-14 14:45:00,69.4,54.4,30.19,ENE,63,4.0,6.0,59,0.00,,,0.00,Wunderground v.1.15,2013-10-14 18:45:00,
2013-10-14 14:51:00,69.4,53.5,30.19,ENE,73,4.0,4.0,57,0.00,,,0.00,Wunderground v.1.15,2013-10-14 18:51:00,
2013-10-14 14:57:00,69.4,54.4,30.19,NE,55,3.0,5.0,59,0.00,,,0.00,Wunderground v.1.15,2013-10-14 18:57:00,
2013-10-14 15:03:00,69.5,53.1,30.18,ENE,59,2.0,4.0,56,0.00,,,0.00,Wunderground v.1.15,2013-10-14 19:03:00,
2013-10-14 15:09:00,69.7,54.3,30.18,ENE,59,2.0,4.0,58,0.00,,,0.00,Wunderground v.1.15,2013-10-14 19:09:00,
2013-10-14 15:15:00,70.1,54.6,30.18,NE,49,2.0,3.0,58,0.00,,,0.00,Wunderground v.1.15,2013-10-14 19:15:00,
2013-10-14 15:21:00,70.3,53.4,30.18,ESE,105,2.0,2.0,55,0.00,,,0.00,Wunderground v.1.15,2013-10-14 19:21:00,
2013-10-14 15:27:00,70.1,52.2,30.18,ESE,113,3.0,3.0,53,0.00,,,0.00,Wunderground v.1.15,2013-10-14 19:27:00,
2013-10-14 15:33:00,70.2,54.2,30.17,East,96,4.0,6.0,57,0.00,,,0.00,Wunderground v.1.15,2013-10-14 19:33:00,
2013-10-14 15:39:00,70.0,52.6,30.17,East,90,4.0,6.0,54,0.00,,,0.00,Wunderground v.1.15,2013-10-14 19:39:00,
2013-10-14 15:45:00,70.1,54.6,30.16,ESE,105,1.0,4.0,58,0.00,,,0.00,Wunderground v.1.15,2013-10-14 19:45:00,
2013-10-14 15:51:00,70.0,51.6,30.16,ESE,103,2.0,4.0,52,0.00,,,0.00,Wunderground v.1.15,2013-10-14 19:51:00,
2013-10-14 15:57:00,69.7,52.8,30.16,East,99,3.0,7.0,55,0.00,,,0.00,Wunderground v.1.15,2013-10-14 19:57:00,
2013-10-14 16:03:00,69.5,53.1,30.16,East,101,4.0,5.0,56,0.00,,,0.00,Wunderground v.1.15,2013-10-14 20:03:00,
2013-10-14 16:09:00,69.5,52.6,30.15,ENE,73,4.0,7.0,55,0.00,,,0.00,Wunderground v.1.15,2013-10-14 20:09:00,
2013-10-14 16:15:00,69.5,52.6,30.15,East,96,4.0,6.0,55,0.00,,,0.00,Wunderground v.1.15,2013-10-14 20:15:00,
2013-10-14 16:21:00,69.5,54.5,30.15,ESE,111,4.0,4.0,59,0.00,,,0.00,Wunderground v.1.15,2013-10-14 20:21:00,
2013-10-14 16:27:00,69.6,53.2,30.15,ESE,105,2.0,4.0,56,0.00,,,0.00,Wunderground v.1.15,2013-10-14 20:27:00,
2013-10-14 16:33:00,69.6,52.7,30.15,East,97,3.0,3.0,55,0.00,,,0.00,Wunderground v.1.15,2013-10-14 20:33:00,
2013-10-14 16:39:00,69.5,52.1,30.15,ENE,74,2.0,3.0,54,0.00,,,0.00,Wunderground v.1.15,2013-10-14 20:39:00,
2013-10-14 16:45:00,69.3,52.9,30.14,ENE,74,1.0,2.0,56,0.00,,,0.00,Wunderground v.1.15,2013-10-14 20:45:00,
2013-10-14 16:51:00,69.4,55.8,30.14,ENE,74,1.0,1.0,62,0.00,,,0.00,Wunderground v.1.15,2013-10-14 20:51:00,
2013-10-14 16:57:00,69.2,52.3,30.14,ENE,78,3.0,4.0,55,0.00,,,0.00,Wunderground v.1.15,2013-10-14 20:57:00,
2013-10-14 17:03:00,69.0,53.1,30.14,East,79,3.0,3.0,57,0.00,,,0.00,Wunderground v.1.15,2013-10-14 21:03:00,
2013-10-14 17:09:00,68.8,52.9,30.14,East,79,2.0,3.0,57,0.00,,,0.00,Wunderground v.1.15,2013-10-14 21:09:00,
2013-10-14 17:15:00,68.9,54.4,30.13,ENE,78,1.0,2.0,60,0.00,,,0.00,Wunderground v.1.15,2013-10-14 21:15:00,
2013-10-14 17:21:00,68.8,53.9,30.14,ENE,78,2.0,2.0,59,0.00,,,0.00,Wunderground v.1.15,2013-10-14 21:21:00,
2013-10-14 17:27:00,68.8,54.8,30.14,ENE,78,1.0,2.0,61,0.00,,,0.00,Wunderground v.1.15,2013-10-14 21:27:00,
2013-10-14 17:33:00,68.8,55.2,30.14,ENE,78,0.0,1.0,62,0.00,,,0.00,Wunderground v.1.15,2013-10-14 21:33:00,
2013-10-14 17:39:00,68.6,54.6,30.14,ENE,78,1.0,1.0,61,0.00,,,0.00,Wunderground v.1.15,2013-10-14 21:39:00,
2013-10-14 17:45:00,68.5,54.5,30.14,ENE,78,1.0,2.0,61,0.00,,,0.00,Wunderground v.1.15,2013-10-14 21:45:00,
2013-10-14 17:51:00,68.5,54.5,30.14,ENE,78,1.0,2.0,61,0.00,,,0.00,Wunderground v.1.15,2013-10-14 21:51:00,
2013-10-14 17:57:00,68.5,54.5,30.14,ENE,78,1.0,2.0,61,0.00,,,0.00,Wunderground v.1.15,2013-10-14 21:57:00,
2013-10-14 18:03:00,68.4,54.4,30.14,ENE,78,1.0,1.0,61,0.00,,,0.00,Wunderground v.1.15,2013-10-14 22:03:00,
2013-10-14 18:09:00,68.1,54.6,30.14,ENE,78,0.0,1.0,62,0.00,,,0.00,Wunderground v.1.15,2013-10-14 22:09:00,
2013-10-14 18:15:00,67.9,54.4,30.14,ENE,78,0.0,0.0,62,0.00,,,0.00,Wunderground v.1.15,2013-10-14 22:15:00,
2013-10-14 18:21:00,67.6,54.6,30.14,ENE,78,0.0,0.0,63,0.00,,,0.00,Wunderground v.1.15,2013-10-14 22:21:00,
2013-10-14 18:27:00,67.3,54.7,30.14,ENE,78,0.0,0.0,64,0.00,,,0.00,Wunderground v.1.15,2013-10-14 22:27:00,
2013-10-14 18:33:00,67.1,56.6,30.14,ENE,78,0.0,0.0,69,0.00,,,0.00,Wunderground v.1.15,2013-10-14 22:33:00,
2013-10-14 18:39:00,66.4,55.5,30.14,ENE,78,0.0,0.0,68,0.00,,,0.00,Wunderground v.1.15,2013-10-14 22:39:00,
2013-10-14 18:45:00,65.8,55.7,30.14,ENE,78,0.0,0.0,70,0.00,,,0.00,Wunderground v.1.15,2013-10-14 22:45:00,
2013-10-14 18:51:00,65.2,55.9,30.14,ENE,78,0.0,0.0,72,0.00,,,0.00,Wunderground v.1.15,2013-10-14 22:51:00,
2013-10-14 18:57:00,64.5,55.7,30.14,ENE,78,0.0,0.0,73,0.00,,,0.00,Wunderground v.1.15,2013-10-14 22:57:00,
2013-10-14 19:03:00,63.8,54.6,30.14,ENE,78,0.0,0.0,72,0.00,,,0.00,Wunderground v.1.15,2013-10-14 23:03:00,
2013-10-14 19:09:00,63.4,54.6,30.14,ENE,78,0.0,0.0,73,0.00,,,0.00,Wunderground v.1.15,2013-10-14 23:09:00,
2013-10-14 19:15:00,62.9,54.5,30.14,ENE,78,0.0,0.0,74,0.00,,,0.00,Wunderground v.1.15,2013-10-14 23:15:00,
2013-10-14 19:21:00,62.3,54.3,30.14,ENE,78,0.0,0.0,75,0.00,,,0.00,Wunderground v.1.15,2013-10-14 23:21:00,
2013-10-14 19:27:00,61.8,54.2,30.14,ENE,78,0.0,0.0,76,0.00,,,0.00,Wunderground v.1.15,2013-10-14 23:27:00,
2013-10-14 19:33:00,61.3,54.0,30.14,ENE,78,0.0,0.0,77,0.00,,,0.00,Wunderground v.1.15,2013-10-14 23:33:00,
2013-10-14 19:39:00,60.8,53.5,30.14,ENE,78,0.0,0.0,77,0.00,,,0.00,Wunderground v.1.15,2013-10-14 23:39:00,
2013-10-14 19:45:00,60.4,53.5,30.14,ENE,78,0.0,0.0,78,0.00,,,0.00,Wunderground v.1.15,2013-10-14 23:45:00,
2013-10-14 19:51:00,60.1,53.2,30.14,ENE,78,0.0,0.0,78,0.00,,,0.00,Wunderground v.1.15,2013-10-14 23:51:00,
2013-10-14 19:57:00,59.9,53.4,30.14,ENE,78,0.0,0.0,79,0.00,,,0.00,Wunderground v.1.15,2013-10-14 23:57:00,
2013-10-14 20:03:00,59.6,53.4,30.14,ENE,78,0.0,0.0,80,0.00,,,0.00,Wunderground v.1.15,2013-10-15 00:03:00,
2013-10-14 20:09:00,59.2,53.4,30.14,ENE,78,0.0,0.0,81,0.00,,,0.00,Wunderground v.1.15,2013-10-15 00:09:00,
2013-10-14 20:15:00,58.7,53.2,30.15,ENE,78,0.0,0.0,82,0.00,,,0.00,Wunderground v.1.15,2013-10-15 00:15:00,
2013-10-14 20:21:00,58.3,52.8,30.14,ENE,78,0.0,0.0,82,0.00,,,0.00,Wunderground v.1.15,2013-10-15 00:21:00,
2013-10-14 20:27:00,58.1,52.6,30.14,ENE,78,0.0,0.0,82,0.00,,,0.00,Wunderground v.1.15,2013-10-15 00:27:00,
2013-10-14 20:33:00,58.0,52.5,30.14,ENE,78,0.0,0.0,82,0.00,,,0.00,Wunderground v.1.15,2013-10-15 00:33:00,
2013-10-14 20:39:00,57.7,52.6,30.13,ENE,78,0.0,0.0,83,0.00,,,0.00,Wunderground v.1.15,2013-10-15 00:39:00,
2013-10-14 20:45:00,57.3,52.5,30.14,ENE,78,0.0,0.0,84,0.00,,,0.00,Wunderground v.1.15,2013-10-15 00:45:00,
2013-10-14 20:51:00,57.0,52.5,30.14,ENE,78,0.0,0.0,85,0.00,,,0.00,Wunderground v.1.15,2013-10-15 00:51:00,
2013-10-14 20:57:00,56.6,52.5,30.13,ENE,78,0.0,0.0,86,0.00,,,0.00,Wunderground v.1.15,2013-10-15 00:57:00,
2013-10-14 21:03:00,56.4,52.3,30.14,ENE,78,0.0,0.0,86,0.00,,,0.00,Wunderground v.1.15,2013-10-15 01:03:00,
2013-10-14 21:11:00,56.1,52.3,30.13,ENE,78,0.0,0.0,87,0.00,,,0.00,Wunderground v.1.15,2013-10-15 01:11:00,
2013-10-14 21:17:00,55.9,52.4,30.13,ENE,78,0.0,0.0,88,0.00,,,0.00,Wunderground v.1.15,2013-10-15 01:17:00,
2013-10-14 21:23:00,55.7,52.5,30.14,ENE,78,0.0,0.0,89,0.00,,,0.00,Wunderground v.1.15,2013-10-15 01:23:00,
2013-10-14 21:29:00,55.6,52.4,30.14,ENE,78,0.0,0.0,89,0.00,,,0.00,Wunderground v.1.15,2013-10-15 01:29:00,
2013-10-14 21:35:00,55.7,52.8,30.14,ENE,78,0.0,0.0,90,0.00,,,0.00,Wunderground v.1.15,2013-10-15 01:35:00,
2013-10-14 21:41:00,55.7,52.8,30.14,ENE,78,0.0,0.0,90,0.00,,,0.00,Wunderground v.1.15,2013-10-15 01:41:00,
2013-10-14 21:47:00,55.8,52.9,30.14,ENE,78,0.0,0.0,90,0.00,,,0.00,Wunderground v.1.15,2013-10-15 01:47:00,
2013-10-14 21:53:00,55.8,52.9,30.14,ENE,78,0.0,0.0,90,0.00,,,0.00,Wunderground v.1.15,2013-10-15 01:53:00,
2013-10-14 21:59:00,55.7,52.5,30.14,ENE,78,0.0,0.0,89,0.00,,,0.00,Wunderground v.1.15,2013-10-15 01:59:00,
2013-10-14 22:05:00,55.6,52.4,30.14,ENE,78,0.0,0.0,89,0.00,,,0.00,Wunderground v.1.15,2013-10-15 02:05:00,
2013-10-14 22:11:00,55.4,52.2,30.14,ENE,78,0.0,0.0,89,0.00,,,0.00,Wunderground v.1.15,2013-10-15 02:11:00,
2013-10-14 22:17:00,55.3,52.4,30.14,ENE,78,0.0,0.0,90,0.00,,,0.00,Wunderground v.1.15,2013-10-15 02:17:00,
2013-10-14 22:23:00,55.2,52.6,30.14,ENE,78,0.0,0.0,91,0.00,,,0.00,Wunderground v.1.15,2013-10-15 02:23:00,
2013-10-14 22:29:00,55.1,52.5,30.14,ENE,78,0.0,0.0,91,0.00,,,0.00,Wunderground v.1.15,2013-10-15 02:29:00,
2013-10-14 22:35:00,55.1,52.5,30.14,ENE,78,0.0,0.0,91,0.00,,,0.00,Wunderground v.1.15,2013-10-15 02:35:00,
2013-10-14 22:41:00,55.1,52.5,30.14,ENE,78,0.0,0.0,91,0.00,,,0.00,Wunderground v.1.15,2013-10-15 02:41:00,
2013-10-14 22:47:00,54.9,52.0,30.14,ENE,78,0.0,0.0,90,0.00,,,0.00,Wunderground v.1.15,2013-10-15 02:47:00,
2013-10-14 22:53:00,54.7,52.1,30.13,ENE,78,0.0,0.0,91,0.00,,,0.00,Wunderground v.1.15,2013-10-15 02:53:00,
2013-10-14 22:59:00,54.6,52.0,30.14,ENE,78,0.0,0.0,91,0.00,,,0.00,Wunderground v.1.15,2013-10-15 02:59:00,
2013-10-14 23:05:00,54.6,52.3,30.15,ENE,78,0.0,0.0,92,0.00,,,0.00,Wunderground v.1.15,2013-10-15 03:05:00,
2013-10-14 23:11:00,54.6,52.3,30.14,ENE,78,0.0,0.0,92,0.00,,,0.00,Wunderground v.1.15,2013-10-15 03:11:00,
2013-10-14 23:17:00,54.5,52.2,30.13,ENE,78,0.0,0.0,92,0.00,,,0.00,Wunderground v.1.15,2013-10-15 03:17:00,
2013-10-14 23:23:00,54.3,52.0,30.14,ENE,78,0.0,0.0,92,0.00,,,0.00,Wunderground v.1.15,2013-10-15 03:23:00,
2013-10-14 23:29:00,54.2,51.9,30.14,ENE,78,0.0,0.0,92,0.00,,,0.00,Wunderground v.1.15,2013-10-15 03:29:00,
2013-10-14 23:35:00,54.2,51.9,30.13,ENE,78,0.0,0.0,92,0.00,,,0.00,Wunderground v.1.15,2013-10-15 03:35:00,
2013-10-14 23:41:00,54.1,51.8,30.13,ENE,78,0.0,0.0,92,0.00,,,0.00,Wunderground v.1.15,2013-10-15 03:41:00,
2013-10-14 23:47:00,54.0,52.0,30.13,ENE,78,0.0,0.0,93,0.00,,,0.00,Wunderground v.1.15,2013-10-15 03:47:00,
2013-10-14 23:53:00,54.0,52.0,30.13,ENE,78,0.0,0.0,93,0.00,,,0.00,Wunderground v.1.15,2013-10-15 03:53:00,
2013-10-14 23:59:00,54.0,52.0,30.12,ENE,78,0.0,0.0,93,0.00,,,0.00,Wunderground v.1.15,2013-10-15 03:59:00,